Details From TNCM - St Maarten - Princess Juliana Intl
To TAPA - Antigua - V C Bird Intl
Flight Number -
Tags generated
Created
Modified
Stats Distance 93 nm / 172 km
Max Altitude 11,400 ft / 3,475 m
Waypoints 3
Social Downloads 1
Likes 0
Share VATSIM

Download

Looking for another format? Having issues loading an existing format? Contact us
Advertisement - Login to hide

Notes

Basic altitude profile: - Ascent Rate: 2500ft/min - Ascent Speed: 250kts - Cruise Altitude: 35000ft - Cruise Speed: 420kts - Descent Rate: 1500ft/min - Descent Speed: 250kts Options: - Use NATs: yes - Use PACOTS: yes - Use low airways: yes - Use high airways: yes

Route

TNCM ELOPO TAPA

ID Type Via Altitude (ft/m) Position (lat/lon) Dist (leg/tot) Name
O TNCM APT - 0 / 0 18.04089 / -63.10897 - / 0 nm St Maarten - Princess Juliana Intl
ELOPO FIX - 11,400 / 3,475 17.65006 / -62.55439 39 / 39 nm
O TAPA APT - 0 / 0 17.13674 / -61.79266 53 / 92 nm Antigua - V C Bird Intl

Altitude Profile

Advertisement - Login to hide

TNCM

Details ICAO TNCM (SXM)
Name Princess Juliana Int'l
Region Caribbean Netherlands, Aruba, Curaçao, Sint Maarten
Timezone Unknown
Stats Elevation 12 ft / 4 m (AMSL)
Location 18.040900° -63.108900°
Runways 1
Magnetic Variation 14.346° W

METAR

TNCM 250400Z 08009KT 050V110 9999 SCT018 28/23 Q1016 A3001

Decode

TAF

TNCM 242339Z 2500/2524 08007KT P6SM VCTS SCT018CB TEMPO 2500/2504 VRB12G22KT SHRA BKN018 FM250400 09012KT P6SM VCTS SCT018CB BKN040 FM251450 10014KT P6SM -SHRA SCT022 BKN060

Decode

Departure Runways

ID Width Length Bearing (true/mag) Surface Threshold Overrun Markings Lighting
10 148 ft / 45 m 7,553 ft / 2,302 m 81.44° / 95.79° ASPHALT 331 ft / 101 m 164 ft / 50 m PREC-APP EDGE THRESHOLD REIL-OMNI
28 148 ft / 45 m 7,553 ft / 2,302 m 261.45° / 275.79° ASPHALT 0 ft / 0 m 200 ft / 61 m APP EDGE THRESHOLD

TAPA

Details ICAO TAPA (ANU)
Name Antigua - VC Bird Intl
Region Antigua and Barbuda
Timezone America/Antigua (UTC-4.0)
Stats Elevation 62 ft / 19 m (AMSL)
Location 17.136000° -61.793900°
Runways 1
Magnetic Variation 14.784° W

METAR

TAPA 250400Z 11010KT 9999 BKN017 27/23 Q1015 NOSIG

Decode

TAF

TAF TAPA 242300Z 2500/2524 11012KT 9999 SCT019 PROB40 TEMPO 2502/2515 SHRA PROB30 TEMPO 2505/2509 TSRA FEW012CB BKN014

Decode

Destination Runways

ID Width Length Bearing (true/mag) Surface Threshold Overrun Markings Lighting
07 145 ft / 44 m 9,978 ft / 3,041 m 58.24° / 73.02° ASPHALT 1,640 ft / 500 m 0 ft / 0 m PREC-APP CENTERLINE EDGE THRESHOLD
25 145 ft / 44 m 9,978 ft / 3,041 m 238.25° / 253.03° ASPHALT 981 ft / 299 m 0 ft / 0 m PREC-APP CENTERLINE EDGE THRESHOLD

Popular Alternatives